Home   Weather   Leawood   Past weeks

Flag for USA Past Weather in Leawood, Kansas, USA — Yesterday and Last 2 Weeks

Now
58 °F

Clear.


Feels Like: 58 °F
Forecast: 54 / 71 °F
Wind: 5 mph from East

Location: Johnson County Executive Airport

Current Time: Sep 30, 2016 at 11:57:33 PM

Latest Report: Sep 30, 2016 at 10:53 PM


Visibility: 10 mi

Pressure: 30.11 "Hg

Humidity: 84%

Dew Point: 53 °F

Location of LeawoodLocation

Past Weather in Leawood — Graph

°F

Leawood Temperature Yesterday

Maximum temperature yesterday: 71 °F (at 4:53 PM)
Minimum temperature yesterday: 49 °F (at 5:53 AM)
Average temperature yesterday: 59 °F

High & Low Weather Summary for the Past Weeks

 TemperatureHumidityPressure
High89 °F (Sep 20, 1:53 PM)100% (Sep 16, 9:53 PM)30.37 "Hg (Sep 16, 9:53 PM)
Low49 °F (Sep 29, 5:53 AM)27% (Sep 26, 1:53 PM)29.84 "Hg (Sep 28, 1:53 AM)
Average69 °F75%30.04 "Hg
* Reported Sep 15 10:53 PM — Sep 30 10:53 PM, Leawood, Weather by CustomWeather, © 2016

Note: Actual official high and low records may vary slightly from our data, if they occured in-between our weather recording intervals... More about our weather records

Advertising

Leawood Weather History for the Previous 24 Hours

Scroll right to see more
 ConditionsComfort  
Time TempWeatherWind HumidityBarometerVisibility
10:53 PM
Fri, Sep 30
58 °FClear.5 mph84%30.11 "Hg10 mi
9:53 PM61 °FClear.6 mph72%30.11 "Hg10 mi
8:53 PM61 °FClear.6 mph70%30.11 "Hg10 mi
7:53 PM65 °FClear.3 mph56%30.11 "Hg10 mi
6:53 PM67 °FSunny.5 mph49%30.11 "Hg10 mi
5:53 PM72 °FSunny.7 mph37%30.11 "Hg10 mi
4:53 PM73 °FSunny.6 mph34%30.11 "Hg10 mi
3:53 PM73 °FSunny.7 mph33%30.11 "Hg10 mi
2:53 PM72 °FSunny.9 mph44%30.13 "Hg10 mi
1:53 PM72 °FSunny.12 mph46%30.16 "Hg10 mi
12:53 PM70 °FPassing clouds.13 mph49%30.20 "Hg10 mi
11:53 AM69 °FPassing clouds.7 mph57%30.21 "Hg10 mi
10:53 AM66 °FSunny.6 mph63%30.23 "Hg10 mi
9:53 AM61 °FSunny.3 mph72%30.24 "Hg10 mi
8:53 AM56 °FSunny.5 mph77%30.23 "Hg10 mi
7:53 AM51 °FSunny.6 mph89%30.23 "Hg10 mi
6:53 AM50 °FClear.6 mph93%30.23 "Hg10 mi
5:53 AM52 °FClear.5 mph86%30.22 "Hg10 mi
4:53 AM53 °FClear.6 mph83%30.22 "Hg10 mi
3:53 AM53 °FClear.7 mph83%30.22 "Hg10 mi
2:53 AM54 °FClear.6 mph80%30.23 "Hg10 mi
1:53 AM55 °FClear.6 mph77%30.24 "Hg10 mi
12:53 AM56 °FClear.6 mph77%30.26 "Hg10 mi
11:53 PM
Thu, Sep 29
56 °FClear.6 mph75%30.28 "Hg10 mi
Weather by CustomWeather, © 2016

See weather overviewHow to use our weather pages